User: anonymous   Login
Location: Hamburg
(53.5500°N, 10.0000°E)
Time: 13:39:54
(UTC+01:00)
Language:

Iridium 10 - Orbit

View from above orbital plane
View from above orbital plane
View from above satellite
View from above satellite

Ground track
Ground track

The orbit data is extracted from the following two-line orbital elements,

1 24839U 97030D   14329.55444084  .00000472  00000-0  16155-3 0  1028
2 24839 086.3971 020.7739 0002200 109.5717 005.4070 14.34213372912990
Epoch (UTC): 25 November 2014 13:18:23
Eccentricity: 0.0002200
inclination: 86.3971°
perigee height: 776 km
apogee height: 779 km
right ascension of ascending node: 20.7739°
argument of perigee: 109.5717°
revolutions per day: 14.34213372
mean anomaly at epoch: 5.4070°
orbit number at epoch: 91299

The dashed part of the orbit path shows where the satellite is in the earth's shadow,  

DLR